Regional Weather Roundup
Issued by NWS

Home | Current Version | Previous Version | Text Only | Print | Product List | Glossary On
Versions: 1 2 3 4 5 6 7 8 9 10 11 12 13 14 15 16 17 18 19 20 21 22 23 24 25 26 27 28 29 30 31 32 33 34 35 36 37 38 39 40 41 42 43 44 45 46 47 48 49 50
000
ASUS43 KMKX 280311
RWRWI

WISCONSIN REGIONAL WEATHER ROUNDUP
NATIONAL WEATHER SERVICE MILWAUKEE/SULLIVAN WI
900 PM CST THU NOV 27 2014

NOTE: "FAIR" INDICATES FEW OR NO CLOUDS BELOW 12,000 FEET WITH NO
SIGNIFICANT WEATHER AND/OR OBSTRUCTIONS TO VISIBILITY.

WIZ001-002-006>008-014>016-023>028-280400-
NORTHWEST WISCONSIN

CITY           SKY/WX    TMP DP  RH WIND       PRES   REMARKS
SUPERIOR ARPT  MOCLDY     4  -3  74 CALM      30.32F
ASHLAND        PTCLDY    -2  -7  79 CALM      30.34F
HAYWARD        PTCLDY    -4  -8  83 CALM      30.28F
SIREN          PTCLDY     5  -2  71 S3        30.30F
CUMBERLAND     MOCLDY     5  -4  66 CALM      30.28F
RICE LAKE      MOCLDY     3  -2  78 CALM      30.32F
CHETEK         MOCLDY     3  -1  83 CALM      30.31F
LADYSMITH      MOCLDY    -3  -6  86 E3        30.32S
EAU CLAIRE     MOCLDY     7  -1  70 SE5       30.33F WCI  -2
MENOMONIE      MOCLDY     9  -1  65 SE3       30.34F
NEW RICHMOND   CLOUDY     8  -1  66 S8        30.31S WCI  -4
OSCEOLA        MOCLDY     9   1  69 S9        30.34S WCI  -4
$$

WIZ003>005-009-010-017-018-280400-
NORTH CENTRAL WISCONSIN

CITY           SKY/WX    TMP DP  RH WIND       PRES   REMARKS
MANITOWISH WTR PTCLDY   -12 -16  80 CALM      30.25S
ARBOR VITAE    PTCLDY    -4  -8  82 CALM      30.25S
WOODRUFF       PTCLDY    -4  -8  82 CALM      30.25S
RHINELANDER    MOCLDY    -7 -10  87 CALM      30.26F
EAGLE RIVER    MOCLDY    -6 -11  78 CALM      30.25S
LAND O LAKES   PTCLDY   -12 -17  79 CALM      30.25F
PHILLIPS       PTCLDY    -7 -10  85 CALM      30.27S
TOMAHAWK       PTCLDY   -10 -15  80 CALM      30.28F
MEDFORD        PTCLDY    -2  -6  84 CALM      30.28S
MERRILL        PTCLDY    -4  -7  85 CALM      30.29F
$$

WIZ029-030-035-036-043>047-280400-
CENTRAL WISCONSIN

CITY           SKY/WX    TMP DP  RH WIND       PRES   REMARKS
WAUSAU         PTCLDY     2  -3  80 CALM      30.30F
MOSINEE        CLEAR      0  -2  92 CALM      30.31F
MARSHFIELD     PTCLDY    -1  -5  82 CALM      30.31F
STEVENS POINT  PTCLDY    -6  -9  84 CALM      30.33F
WAUPACA        FAIR       3  -2  79 CALM      30.37F
WAUTOMA        PTCLDY    -6 -12  75 CALM      30.37F
WISC RAPIDS    MOCLDY    -1  -6  79 CALM      30.36F
CAMP DOUGLAS   CLOUDY     4   3  96 CALM      30.36F
$$

WIZ011>013-019>022-031-037>040-048>050-280400-
NORTHEAST WISCONSIN

CITY           SKY/WX    TMP DP  RH WIND       PRES   REMARKS
ANTIGO         PTCLDY    -7 -10  89 CALM      30.28F
SHAWANO        PTCLDY     6   3  84 CALM      30.36F
OCONTO         PTCLDY     1  -2  88 CALM      30.37F
STURGEON BAY   PTCLDY    12   1  62 NW5       30.34F WCI   4
GREEN BAY      PTCLDY     5   0  79 W6        30.37F WCI  -6
MANITOWOC      PTCLDY     8   5  87 W5        30.38S WCI   0
APPLETON       CLEAR      3   0  85 W9        30.36F WCI -11
CLINTONVILLE   PTCLDY     3   0  85 CALM      30.35F
OSHKOSH        PTCLDY     6  -1  73 MISG      30.36F
$$

WIZ032>034-041-042-053>061-280400-
SOUTHWEST WISCONSIN

CITY           SKY/WX    TMP DP  RH WIND       PRES   REMARKS
LA CROSSE      MOCLDY    12   2  64 S6        30.38F WCI   3
SPARTA         MOCLDY     5   1  84 CALM      30.38F
VIROQUA        MOCLDY     8   1  75 CALM      30.32F
BOSCOBEL       PTCLDY    11   3  70 CALM      30.41F
PRAIRIE DU CHI PTCLDY    11   1  64 CALM      30.39F
PLATTEVILLE    PTCLDY    10   2  70 CALM      30.38F
$$

WIZ056-057-062-063-064-067-068-280400-
SOUTH CENTRAL WISCONSIN

CITY           SKY/WX    TMP DP  RH WIND       PRES   REMARKS
REEDSBURG      PTCLDY     5   2  87 CALM      30.37F
BARABOO/DELLS  PTCLDY     4   0  86 CALM      30.36S
LONE ROCK      MOCLDY    10   1  67 CALM      30.40S
MINERAL POINT  MOCLDY    12   3  67 CALM      30.35F
MADISON        MOCLDY     8   4  83 N3        30.37F
MIDDLETON      MOCLDY     6   2  83 CALM      30.38S
WATERTOWN      MOCLDY     4   2  91 CALM      30.37S
MONROE         MOCLDY    12   7  79 W3        30.37S
JANESVILLE     PTCLDY    10   9  92 CALM      30.38S
$$

WIZ051-052-058>065-066-070>072-280400-
SOUTHEAST WISCONSIN

CITY           SKY/WX    TMP DP  RH WIND       PRES   REMARKS
MILWAUKEE      PTCLDY    15   7  70 NW5       30.39S WCI   8
WAUKESHA       PTCLDY    10   5  79 W3        30.38S
MILWAUKEE/TIMM PTCLDY    12   7  79 CALM      30.39F
RACINE         CLEAR     13   7  77 NW3       30.40F
BURLINGTON     PTCLDY     4   3  94 CALM      30.38F
KENOSHA        PTCLDY    11   6  81 CALM      30.38F
FOND DU LAC    MOCLDY     4  -1  80 CALM      30.37F
SHEBOYGAN      PTCLDY     8   3  80 W7        30.37F WCI  -3
WEST BEND      PTCLDY     9   5  85 CALM      30.37S
JUNEAU         MOCLDY     4   2  90 CALM      30.38S
$$

LSZ147-162-280400-
LAKE SUPERIOR

STATION/POSITION TIME  TEMP    WIND        PRES    WAVE
                       AIR SEA DIR/SP/G            HT/PER
                 (UTC) (F)     (DEG/KT/KT) (MB)    (FT/S)
DEVILS ISLAND    0300   12     220/ 12/ 16 1028.3F
PORT WING        0240    4     140/  2/  5 1027.1F
SAXON HARBOR     0210   -1      CALM  / 32 1027.8
$$

LMZ867-665-643>646-280400-
LAKE MICHIGAN

STATION/POSITION TIME  TEMP    WIND        PRES    WAVE
                       AIR SEA DIR/SP/G            HT/PER
                 (UTC) (F)     (DEG/KT/KT) (MB)    (FT/S)
CHAMBERS ISLAND  0200   16     320/  9/ 12 1028.1S
N MID LAKE BUOY  0250   19 42  320/ 12/ 17 1028.3R   3/ 4
NORTHPORT PIER   0212   17     310/ 12/ 16 1027.8S
SISTER BAY       0228          360/ 14/ 17   N/A
KEWAUNEE LAKESHO 0200   10     300/  4/  5 1027.3F
SHEBOYGAN LAKESH 0300   12 34  280/  8/ 11 1030.2F
PORT WASHINGTON  0200   14     310/  3/  4 1029.8F
MILWAUKEE LAKESH 0200   17     290/  5/  7   N/A
S MID LAKE BUOY  0250   23 42  290/ 10/ 14 1029.5S   5/ 7
KENOSHA   LAKESH 0300   16     310/  5/  8 1029.1S
$$

TC  - TEMPERATURE IN CELSIUS
VSB - VISIBILITY IN STATUTE MILES
WCI - WIND CHILL INDEX
HX  - HEAT INDEX



USA.gov is the U.S. government's official web portal to all federal, state and local government web resources and services.